Satellite: NOAA-12
Catalog number: 21263
Epoch time: 13072.46001888
Element set: 752
Inclination: 098.7058 deg
RA of node: 098.5674 deg
Eccentricity: 0.0014807
Arg of perigee: 136.3607 deg
Mean anomaly: 358.5649 deg
Mean motion: 14.25550650 rev/day
Decay rate: 2.1e-07 rev/day^2
Epoch rev: 13491
Checksum: 306
Satellite: MET-3/5
Catalog number: 21655
Epoch time: 13072.15099216
Element set: 641
Inclination: 082.5578 deg
RA of node: 322.1590 deg
Eccentricity: 0.0013438
Arg of perigee: 014.9914 deg
Mean anomaly: 345.1604 deg
Mean motion: 13.17048938 rev/day
Decay rate: -3.19e-06 rev/day^2
Epoch rev: 3729
Checksum: 300
Satellite: MET-2/21
Catalog number: 22782
Epoch time: 13072.83403042
Element set: 686
Inclination: 082.5524 deg
RA of node: 178.5677 deg
Eccentricity: 0.0023855
Arg of perigee: 116.6387 deg
Mean anomaly: 030.5263 deg
Mean motion: 13.83702446 rev/day
Decay rate: 8.8e-07 rev/day^2
Epoch rev: 98645
Checksum: 321
Satellite: OKEAN-4
Catalog number: 23317
Epoch time: 13073.14710450
Element set: 163
Inclination: 082.5393 deg
RA of node: 138.7365 deg
Eccentricity: 0.0021926
Arg of perigee: 176.2573 deg
Mean anomaly: 244.2269 deg
Mean motion: 14.84290070 rev/day
Decay rate: 7.42e-06 rev/day^2
Epoch rev: 99484
Checksum: 301
Satellite: NOAA-14
Catalog number: 23455
Epoch time: 13072.47635843
Element set: 237
Inclination: 098.8048 deg
RA of node: 158.3559 deg
Eccentricity: 0.0008466
Arg of perigee: 268.1677 deg
Mean anomaly: 197.0487 deg
Mean motion: 14.13896967 rev/day
Decay rate: -3.9e-07 rev/day^2
Epoch rev: 93884
Checksum: 369
Satellite: NOAA-15
Catalog number: 25338
Epoch time: 13072.47938307
Element set: 654
Inclination: 098.7196 deg
RA of node: 063.2367 deg
Eccentricity: 0.0011378
Arg of perigee: 051.3377 deg
Mean anomaly: 116.8485 deg
Mean motion: 14.25185938 rev/day
Decay rate: 1.72e-06 rev/day^2
Epoch rev: 77120
Checksum: 325
Satellite: RESURS
Catalog number: 25394
Epoch time: 13072.48714940
Element set: 326
Inclination: 098.3531 deg
RA of node: 052.9619 deg
Eccentricity: 0.0002164
Arg of perigee: 139.6730 deg
Mean anomaly: 006.6544 deg
Mean motion: 14.24322524 rev/day
Decay rate: 2.4e-07 rev/day^2
Epoch rev: 76273
Checksum: 282
Satellite: FENGYUN1
Catalog number: 25730
Epoch time: 13072.49479391
Element set: 826
Inclination: 098.8710 deg
RA of node: 033.2337 deg
Eccentricity: 0.0022784
Arg of perigee: 318.9332 deg
Mean anomaly: 178.4347 deg
Mean motion: 14.10270686 rev/day
Decay rate: 2.015e-05 rev/day^2
Epoch rev: 71255
Checksum: 304
Satellite: OKEAN-0
Catalog number: 25860
Epoch time: 13072.83483271
Element set: 891
Inclination: 097.9796 deg
RA of node: 036.6306 deg
Eccentricity: 0.0002154
Arg of perigee: 102.2892 deg
Mean anomaly: 289.8893 deg
Mean motion: 14.74501376 rev/day
Decay rate: 6.14e-06 rev/day^2
Epoch rev: 73430
Checksum: 318
Satellite: NOAA-16
Catalog number: 26536
Epoch time: 13072.46183003
Element set: 132
Inclination: 099.0544 deg
RA of node: 124.2276 deg
Eccentricity: 0.0011002
Arg of perigee: 050.7107 deg
Mean anomaly: 064.4128 deg
Mean motion: 14.12848507 rev/day
Decay rate: 6.4e-07 rev/day^2
Epoch rev: 64305
Checksum: 256
Satellite: NOAA-17
Catalog number: 27453
Epoch time: 13072.49636388
Element set: 56
Inclination: 098.3180 deg
RA of node: 091.6332 deg
Eccentricity: 0.0012843
Arg of perigee: 088.7224 deg
Mean anomaly: 075.9029 deg
Mean motion: 14.24546258 rev/day
Decay rate: 1.4e-07 rev/day^2
Epoch rev: 55709
Checksum: 317
Satellite: NOAA-18
Catalog number: 28654
Epoch time: 13072.48943331
Element set: 537
Inclination: 099.0897 deg
RA of node: 039.3864 deg
Eccentricity: 0.0015332
Arg of perigee: 116.4786 deg
Mean anomaly: 031.2840 deg
Mean motion: 14.11781188 rev/day
Decay rate: 2.20e-06 rev/day^2
Epoch rev: 40255
Checksum: 307
Satellite: NOAA-19
Catalog number: 33591
Epoch time: 13072.48439671
Element set: 725
Inclination: 098.8961 deg
RA of node: 015.3449 deg
Eccentricity: 0.0013699
Arg of perigee: 344.7747 deg
Mean anomaly: 149.7720 deg
Mean motion: 14.11468095 rev/day
Decay rate: 2.73e-06 rev/day^2
Epoch rev: 21099
Checksum: 343
/EX
SB KEPS @ AMSAT $ORB13073.M
Orbital Elements 13073.MISC
HR AMSAT ORBITAL ELEMENTS FOR MANNED AND MISCELLANEOUS SATELLITES
FROM WA5QGD FORT WORTH,TX March 14, 2013
BID: ORB13073.M
TO ALL RADIO AMATEURS BT
Satellite: HUBBLE
Catalog number: 20580
Epoch time: 13072.68836264
Element set: 194
Inclination: 028.4693 deg
RA of node: 178.7454 deg
Eccentricity: 0.0003556
Arg of perigee: 052.1934 deg
Mean anomaly: 094.0182 deg
Mean motion: 15.03356816 rev/day
Decay rate: 2.006e-05 rev/day^2
Epoch rev: 5531
Checksum: 288
Satellite: ISS
Catalog number: 25544
Epoch time: 13073.78002109
Element set: 406
Inclination: 051.6469 deg
RA of node: 217.1035 deg
Eccentricity: 0.0012446
Arg of perigee: 015.8975 deg
Mean anomaly: 140.3716 deg
Mean motion: 15.52795476 rev/day
Decay rate: 1.2165e-04 rev/day^2
Epoch rev: 82004
Checksum: 282
Satellite: CO-58
Catalog number: 28895
Epoch time: 13073.12143681
Element set: 426
Inclination: 097.8827 deg
RA of node: 293.0301 deg
Eccentricity: 0.0017945
Arg of perigee: 026.0122 deg
Mean anomaly: 120.0013 deg
Mean motion: 14.60992127 rev/day
Decay rate: 5.20e-06 rev/day^2
Epoch rev: 39306
Checksum: 281
Satellite: FALCON
Catalog number: 30776
Epoch time: 13073.14428630
Element set: 569
Inclination: 035.4314 deg
RA of node: 065.1575 deg
Eccentricity: 0.0002740
Arg of perigee: 225.8115 deg
Mean anomaly: 204.6996 deg
Mean motion: 15.09750738 rev/day
Decay rate: 6.103e-05 rev/day^2
Epoch rev: 33104
Checksum: 281
Satellite: MAST
Catalog number: 31126
Epoch time: 13072.87039606
Element set: 705
Inclination: 097.8794 deg
RA of node: 074.2541 deg
Eccentricity: 0.0092767
Arg of perigee: 350.8297 deg
Mean anomaly: 077.3777 deg
Mean motion: 14.54462579 rev/day
Decay rate: 7.71e-06 rev/day^2
Epoch rev: 31346
Checksum: 335
Satellite: CAPE1
Catalog number: 31130
Epoch time: 13072.51846468
Element set: 716
Inclination: 097.8949 deg
RA of node: 070.2450 deg
Eccentricity: 0.0100680
Arg of perigee: 006.8964 deg
Mean anomaly: 138.4806 deg
Mean motion: 14.53339454 rev/day
Decay rate: 1.177e-05 rev/day^2
Epoch rev: 31288
Checksum: 307
Satellite: COMPASS
Catalog number: 32787
Epoch time: 13072.21119906
Element set: 567
Inclination: 097.7633 deg
RA of node: 133.2405 deg
Eccentricity: 0.0013629
Arg of perigee: 255.7545 deg
Mean anomaly: 136.7584 deg
Mean motion: 14.85064596 rev/day
Decay rate: 2.391e-05 rev/day^2
Epoch rev: 26372
Checksum: 319
Satellite: AAUSAT2
Catalog number: 32788
Epoch time: 13072.18129463
Element set: 557
Inclination: 097.7638 deg
RA of node: 133.7650 deg
Eccentricity: 0.0013137
Arg of perigee: 256.0675 deg
Mean anomaly: 137.5250 deg
Mean motion: 14.85488504 rev/day
Decay rate: 2.600e-05 rev/day^2
Epoch rev: 26375
Checksum: 314
Satellite: DO-64
Catalog number: 32789
Epoch time: 13072.78331747
Element set: 581
Inclination: 097.7780 deg
RA of node: 137.5927 deg
Eccentricity: 0.0012960
Arg of perigee: 247.7280 deg
Mean anomaly: 251.6820 deg
Mean motion: 14.87752749 rev/day
Decay rate: 4.400e-05 rev/day^2
Epoch rev: 26393
Checksum: 344
Satellite: CO-66
Catalog number: 32791
Epoch time: 13072.18972953
Element set: 553
Inclination: 097.7635 deg
RA of node: 132.6999 deg
Eccentricity: 0.0014094
Arg of perigee: 257.0512 deg
Mean anomaly: 136.2702 deg
Mean motion: 14.84287448 rev/day
Decay rate: 1.842e-05 rev/day^2
Epoch rev: 26363
Checksum: 335
Satellite: RS-30
Catalog number: 32953
Epoch time: 13073.24630996
Element set: 676
Inclination: 082.5022 deg
RA of node: 127.2364 deg
Eccentricity: 0.0020183
Arg of perigee: 080.9862 deg
Mean anomaly: 279.3502 deg
Mean motion: 12.43031903 rev/day
Decay rate: 1.0e-07 rev/day^2
Epoch rev: 21811
Checksum: 267
Satellite: METEOR-M
Catalog number: 35865
Epoch time: 13073.15730419
Element set: 284
Inclination: 098.6148 deg
RA of node: 127.8631 deg
Eccentricity: 0.0002800
Arg of perigee: 010.3752 deg
Mean anomaly: 349.7479 deg
Mean motion: 14.21881041 rev/day
Decay rate: -1.1e-07 rev/day^2
Epoch rev: 18096
Checksum: 288
Satellite: RS-38
Catalog number: 35869
Epoch time: 13073.27695429
Element set: 259
Inclination: 098.6091 deg
RA of node: 127.9202 deg
Eccentricity: 0.0004798
Arg of perigee: 001.0259 deg
Mean anomaly: 359.0924 deg
Mean motion: 14.22115846 rev/day
Decay rate: 1.3e-07 rev/day^2
Epoch rev: 18100
Checksum: 308
Satellite: JUGNU
Catalog number: 37839
Epoch time: 13071.65016808
Element set: 348
Inclination: 019.9607 deg
RA of node: 171.7049 deg
Eccentricity: 0.0019095
Arg of perigee: 300.8333 deg
Mean anomaly: 200.6793 deg
Mean motion: 14.12130761 rev/day
Decay rate: 4.37e-06 rev/day^2
Epoch rev: 7323
Checksum: 287
Satellite: SRMSAT
Catalog number: 37841
Epoch time: 13072.56234608
Element set: 351
Inclination: 019.9712 deg
RA of node: 176.3447 deg
Eccentricity: 0.0011803
Arg of perigee: 268.1520 deg
Mean anomaly: 212.7714 deg
Mean motion: 14.10205620 rev/day
Decay rate: 3.93e-06 rev/day^2
Epoch rev: 7325
Checksum: 263
Satellite: RAX-2
Catalog number: 37853
Epoch time: 13072.50279610
Element set: 448
Inclination: 101.7145 deg
RA of node: 241.8757 deg
Eccentricity: 0.0238835
Arg of perigee: 301.5041 deg
Mean anomaly: 094.5431 deg
Mean motion: 14.82482685 rev/day
Decay rate: 3.955e-05 rev/day^2
Epoch rev: 7426
Checksum: 307
Satellite: AUBIESAT
Catalog number: 37854
Epoch time: 13072.43822903
Element set: 446
Inclination: 101.7183 deg
RA of node: 242.4588 deg
Eccentricity: 0.0239058
Arg of perigee: 300.5527 deg
Mean anomaly: 110.6978 deg
Mean motion: 14.83093891 rev/day
Decay rate: 4.095e-05 rev/day^2
Epoch rev: 7426
Checksum: 311
